• In Hungary
  • List of Countries
  • For 7 days
  • Water Temperature
  • Satellite Maps
  • Weather Map
  • News
  • Weather Widgets
  • user-avatar
    Login

    Hourly Weather Malyy Bohot

    Today, 24 April, Tuesday

    Time Temperature Precipitation Wind Pressure Humidity
    00:00 +1°C° 0 mm 1 mps 735 mmHg 64%
    01:00 0°C° 0 mm 1 mps 735 mmHg 65%
    02:00 -2°C° 0 mm 2 mps 735 mmHg 66%
    03:00 -2°C° 0 mm 2 mps 734 mmHg 65%
    04:00 -1°C° 0 mm 2 mps 734 mmHg 65%
    05:00 -1°C° 0 mm 2 mps 734 mmHg 64%
    06:00 +2°C° 0 mm 2 mps 733 mmHg 61%
    07:00 +3°C° 0 mm 2 mps 733 mmHg 59%
    08:00 +4°C° 0 mm 3 mps 733 mmHg 56%
    09:00 +5°C° 0 mm 3 mps 732 mmHg 56%
    10:00 +8°C° 0 mm 3 mps 732 mmHg 56%
    11:00 +9°C° 0 mm 3 mps 732 mmHg 55%
    12:00 +9°C° 0.3 mm 3 mps 731 mmHg 60%
    13:00 +9°C° 0.3 mm 3 mps 731 mmHg 65%
    14:00 +9°C° 0.3 mm 3 mps 730 mmHg 70%
    15:00 +9°C° 0.3 mm 2 mps 730 mmHg 76%
    16:00 +8°C° 0.3 mm 2 mps 730 mmHg 81%
    17:00 +8°C° 0.3 mm 2 mps 729 mmHg 87%
    18:00 +7°C° 0 mm 2 mps 729 mmHg 90%
    19:00 +7°C° 0 mm 2 mps 729 mmHg 92%
    20:00 +6°C° 0 mm 2 mps 729 mmHg 95%
    21:00 +6°C° 0.1 mm 2 mps 728 mmHg 95%
    22:00 +6°C° 0.1 mm 2 mps 728 mmHg 96%
    23:00 +6°C° 0.1 mm 2 mps 728 mmHg 97%

    Tomorrow, 25 April, Wednesday

    Time Temperature Precipitation Wind Pressure Humidity
    00:00 +6°C° 0.2 mm 2 mps 728 mmHg 97%
    01:00 +6°C° 0.2 mm 2 mps 728 mmHg 97%
    02:00 +6°C° 0.2 mm 2 mps 728 mmHg 97%
    03:00 +5°C° 0.1 mm 2 mps 728 mmHg 97%
    04:00 +5°C° 0.1 mm 2 mps 727 mmHg 96%
    05:00 +4°C° 0.1 mm 3 mps 727 mmHg 96%
    06:00 +4°C° 0.3 mm 3 mps 727 mmHg 93%
    07:00 +5°C° 0.3 mm 3 mps 727 mmHg 91%
    08:00 +5°C° 0.3 mm 4 mps 727 mmHg 88%
    09:00 +6°C° 0.3 mm 4 mps 727 mmHg 84%
    10:00 +7°C° 0.3 mm 5 mps 727 mmHg 79%
    11:00 +8°C° 0.3 mm 5 mps 727 mmHg 75%
    12:00 +8°C° 0.5 mm 5 mps 727 mmHg 73%
    13:00 +8°C° 0.5 mm 5 mps 727 mmHg 71%
    14:00 +9°C° 0.5 mm 5 mps 727 mmHg 68%
    15:00 +9°C° 0.2 mm 5 mps 727 mmHg 69%
    16:00 +8°C° 0.2 mm 5 mps 727 mmHg 69%
    17:00 +8°C° 0.2 mm 4 mps 727 mmHg 69%
    18:00 +7°C° 0.1 mm 4 mps 727 mmHg 75%
    19:00 +7°C° 0.1 mm 3 mps 727 mmHg 81%
    20:00 +6°C° 0.1 mm 2 mps 727 mmHg 86%
    21:00 +5°C° 0.1 mm 2 mps 727 mmHg 88%
    22:00 +5°C° 0.1 mm 2 mps 727 mmHg 89%
    23:00 +4°C° 0.1 mm 2 mps 727 mmHg 90%

    Day after tomorrow, 26 April, Thursday

    Time Temperature Precipitation Wind Pressure Humidity
    00:00 +4°C° 0 mm 2 mps 727 mmHg 91%
    01:00 +4°C° 0 mm 2 mps 727 mmHg 92%
    02:00 +3°C° 0 mm 2 mps 727 mmHg 92%
    03:00 +4°C° 0 mm 1 mps 726 mmHg 93%
    04:00 +4°C° 0 mm 1 mps 726 mmHg 93%
    05:00 +3°C° 0 mm 1 mps 726 mmHg 94%
    06:00 +5°C° 0 mm 1 mps 726 mmHg 88%
    07:00 +6°C° 0 mm 2 mps 726 mmHg 81%
    08:00 +7°C° 0 mm 2 mps 726 mmHg 75%
    09:00 +8°C° 0.1 mm 2 mps 726 mmHg 69%
    10:00 +9°C° 0.1 mm 3 mps 726 mmHg 64%
    11:00 +10°C° 0.1 mm 4 mps 726 mmHg 58%
    12:00 +11°C° 0.3 mm 4 mps 727 mmHg 56%
    13:00 +11°C° 0.3 mm 4 mps 727 mmHg 54%
    14:00 +11°C° 0.3 mm 4 mps 727 mmHg 52%
    15:00 +11°C° 0.2 mm 4 mps 727 mmHg 53%
    16:00 +11°C° 0.2 mm 4 mps 727 mmHg 55%
    17:00 +11°C° 0.2 mm 4 mps 728 mmHg 56%
    18:00 +9°C° 0.1 mm 3 mps 728 mmHg 64%
    19:00 +8°C° 0.1 mm 2 mps 728 mmHg 71%
    20:00 +6°C° 0.1 mm 2 mps 729 mmHg 79%
    21:00 +6°C° 0 mm 2 mps 729 mmHg 81%
    22:00 +5°C° 0 mm 2 mps 729 mmHg 84%
    23:00 +5°C° 0 mm 2 mps 729 mmHg 86%

    27 April, Friday

    Time Temperature Precipitation Wind Pressure Humidity
    00:00 +5°C° 0 mm 2 mps 730 mmHg 88%
    01:00 +5°C° 0 mm 2 mps 730 mmHg 90%
    02:00 +5°C° 0 mm 2 mps 730 mmHg 91%
    03:00 +4°C° 0.1 mm 2 mps 730 mmHg 93%
    04:00 +4°C° 0.1 mm 2 mps 730 mmHg 94%
    05:00 +4°C° 0.1 mm 2 mps 730 mmHg 96%
    06:00 +5°C° 0 mm 2 mps 731 mmHg 90%
    07:00 +5°C° 0 mm 3 mps 731 mmHg 85%
    08:00 +7°C° 0 mm 3 mps 731 mmHg 80%
    09:00 +7°C° 0.2 mm 3 mps 732 mmHg 77%
    10:00 +7°C° 0.2 mm 4 mps 732 mmHg 74%
    11:00 +7°C° 0.2 mm 4 mps 732 mmHg 71%
    12:00 +8°C° 0.1 mm 4 mps 732 mmHg 68%
    13:00 +8°C° 0.1 mm 4 mps 732 mmHg 66%
    14:00 +10°C° 0.1 mm 4 mps 732 mmHg 63%
    15:00 +10°C° 0.1 mm 4 mps 733 mmHg 62%
    16:00 +10°C° 0.1 mm 3 mps 733 mmHg 61%
    17:00 +10°C° 0.1 mm 3 mps 733 mmHg 60%
    18:00 +8°C° 0.1 mm 3 mps 733 mmHg 68%
    19:00 +7°C° 0.1 mm 2 mps 733 mmHg 76%
    20:00 +5°C° 0.1 mm 2 mps 734 mmHg 84%
    21:00 +5°C° 0 mm 2 mps 734 mmHg 87%
    22:00 +4°C° 0 mm 2 mps 734 mmHg 89%
    23:00 +4°C° 0 mm 2 mps 735 mmHg 92%

    28 April, Saturday

    Time Temperature Precipitation Wind Pressure Humidity
    00:00 +4°C° 0 mm 2 mps 735 mmHg 93%
    01:00 +4°C° 0 mm 2 mps 735 mmHg 93%
    02:00 +2°C° 0 mm 3 mps 736 mmHg 94%
    03:00 +2°C° 0 mm 3 mps 736 mmHg 94%
    04:00 +2°C° 0 mm 3 mps 736 mmHg 94%
    05:00 +2°C° 0 mm 3 mps 737 mmHg 94%
    06:00 +3°C° 0 mm 3 mps 737 mmHg 88%
    07:00 +4°C° 0 mm 3 mps 738 mmHg 82%
    08:00 +5°C° 0 mm 3 mps 738 mmHg 76%
    09:00 +8°C° 0 mm 3 mps 739 mmHg 68%
    10:00 +8°C° 0 mm 4 mps 739 mmHg 60%
    11:00 +10°C° 0 mm 4 mps 739 mmHg 53%
    12:00 +11°C° 0 mm 4 mps 739 mmHg 50%
    13:00 +12°C° 0 mm 4 mps 739 mmHg 47%
    14:00 +13°C° 0 mm 4 mps 739 mmHg 43%
    15:00 +12°C° 0.1 mm 4 mps 739 mmHg 45%
    16:00 +12°C° 0.1 mm 3 mps 739 mmHg 47%
    17:00 +12°C° 0.1 mm 3 mps 739 mmHg 49%
    18:00 +10°C° 0.1 mm 2 mps 739 mmHg 56%
    19:00 +9°C° 0.1 mm 2 mps 740 mmHg 63%
    20:00 +8°C° 0.1 mm 1 mps 740 mmHg 70%
    21:00 +8°C° 0 mm 1 mps 740 mmHg 72%
    22:00 +8°C° 0 mm 1 mps 740 mmHg 74%
    23:00 +7°C° 0 mm 1 mps 740 mmHg 76%

    29 April, Sunday

    Time Temperature Precipitation Wind Pressure Humidity
    00:00 +7°C° 0.1 mm 1 mps 740 mmHg 80%
    01:00 +7°C° 0.1 mm 1 mps 740 mmHg 84%
    02:00 +7°C° 0.1 mm 1 mps 740 mmHg 88%
    03:00 +7°C° 0 mm 1 mps 740 mmHg 88%
    04:00 +7°C° 0 mm 1 mps 740 mmHg 89%
    05:00 +7°C° 0 mm 1 mps 740 mmHg 90%
    06:00 +8°C° 0 mm 1 mps 740 mmHg 85%
    07:00 +9°C° 0 mm 1 mps 740 mmHg 79%
    08:00 +10°C° 0 mm 1 mps 740 mmHg 74%
    09:00 +10°C° 0.4 mm 1 mps 740 mmHg 76%
    10:00 +9°C° 0.4 mm 2 mps 739 mmHg 77%
    11:00 +9°C° 0.4 mm 2 mps 739 mmHg 79%
    12:00 +9°C° 0.6 mm 2 mps 739 mmHg 82%
    13:00 +9°C° 0.6 mm 2 mps 738 mmHg 85%
    14:00 +8°C° 0.6 mm 2 mps 738 mmHg 88%
    15:00 +8°C° 0.6 mm 2 mps 737 mmHg 90%
    16:00 +8°C° 0.6 mm 2 mps 737 mmHg 91%
    17:00 +9°C° 0.6 mm 1 mps 737 mmHg 93%
    18:00 +9°C° 0 mm 1 mps 737 mmHg 94%
    19:00 +9°C° 0 mm 1 mps 737 mmHg 96%
    20:00 +8°C° 0 mm 1 mps 737 mmHg 97%
    21:00 +8°C° 0 mm 1 mps 737 mmHg 97%
    22:00 +7°C° 0 mm 0 mps 736 mmHg 97%
    23:00 +7°C° 0 mm 0 mps 736 mmHg 98%
    Show more